WetterOnline ( https://www.wetteronline.de )

Wetter aktuell Heidelberg

Aktuelles Wetter: Mannheim (100m)

6-stündlich | Neueste Meldungen
Ortszeit Temperatur Wetter
Fr, 09.12. 13:00 3.5° C wolkig
Fr, 09.12. 7:00 -0.1° C wolkig
Fr, 09.12. 1:00 2.3° C bedeckt
Do, 08.12. 19:00 3.2° C bedeckt
Do, 08.12. 13:00 4.3° C bedeckt
Do, 08.12. 7:00 1.8° C bedeckt
Do, 08.12. 1:00 3.2° C bewölkt
Mi, 07.12. 19:00 4.5° C bedeckt
Ortszeit Temperatur Wetter
Fr, 09.12. 17:30 2.9° C bedeckt
Fr, 09.12. 17:20 2.9° C bedeckt
Fr, 09.12. 17:10 3.0° C bedeckt
Fr, 09.12. 17:00 3.1° C bedeckt
Fr, 09.12. 16:50 3.1° C bedeckt
Fr, 09.12. 16:40 3.0° C bewölkt
Fr, 09.12. 16:30 3.1° C bewölkt
Fr, 09.12. 16:00 3.0° C bewölkt
Fr, 09.12. 15:30 3.3° C bewölkt
Fr, 09.12. 15:00 3.3° C bewölkt
Fr, 09.12. 14:30 3.4° C bedeckt
Ortszeit Relative Feuchte Sichtweite
Fr, 09.12. 13:00 71% 29 km
Fr, 09.12. 7:00 90% 22 km
Fr, 09.12. 1:00 88% 24 km
Do, 08.12. 19:00 85% 25 km
Do, 08.12. 13:00 81% 29 km
Do, 08.12. 7:00 94% 11 km
Do, 08.12. 1:00 88% 19 km
Mi, 07.12. 19:00 80% 35 km
Ortszeit Relative Feuchte Sichtweite
Fr, 09.12. 17:30 77% 25 km
Fr, 09.12. 17:20 77% -
Fr, 09.12. 17:10 77% -
Fr, 09.12. 17:00 75% 27 km
Fr, 09.12. 16:50 75% -
Fr, 09.12. 16:40 77% -
Fr, 09.12. 16:30 76% 27 km
Fr, 09.12. 16:00 74% 28 km
Fr, 09.12. 15:30 72% 29 km
Fr, 09.12. 15:00 71% 27 km
Fr, 09.12. 14:30 71% 29 km
Ortszeit Niederschlagsmenge Niederschlagsart
Fr, 09.12. 13:00 0.0 l/m2 in 6 Std. -
Fr, 09.12. 7:00 0.0 l/m2 in 12 Std. -
Fr, 09.12. 1:00 0.0 l/m2 in 6 Std. -
Do, 08.12. 19:00 0.1 l/m2 in 12 Std. -
Do, 08.12. 13:00 0.1 l/m2 in 6 Std. Regen
Do, 08.12. 7:00 0.1 l/m2 in 12 Std. Regen
Do, 08.12. 1:00 0.1 l/m2 in 6 Std. Regen
Mi, 07.12. 19:00 0.1 l/m2 in 12 Std. Regen
Ortszeit Niederschlagsmenge Niederschlagsart
Fr, 09.12. 17:30 0.0 l/m2 in 1 Std. -
Fr, 09.12. 17:20 keine Meldung -
Fr, 09.12. 17:10 keine Meldung -
Fr, 09.12. 17:00 0.0 l/m2 in 1 Std. -
Fr, 09.12. 16:50 keine Meldung -
Fr, 09.12. 16:40 keine Meldung -
Fr, 09.12. 16:30 0.0 l/m2 in 1 Std. -
Fr, 09.12. 16:00 0.0 l/m2 in 1 Std. -
Fr, 09.12. 15:30 0.0 l/m2 in 1 Std. -
Fr, 09.12. 15:00 0.0 l/m2 in 1 Std. -
Fr, 09.12. 14:30 0.0 l/m2 in 1 Std. -
Ortszeit Stärke Spitze Richtung
km/h Bft. km/h Grad Sektor
Fr, 09.12. 13:00 15 3 22 10° N
Fr, 09.12. 7:00 7 2 11 360° N
Fr, 09.12. 1:00 4 1 14 150° SO
Do, 08.12. 19:00 7 2 22 140° SO
Do, 08.12. 13:00 9 2 20 180° S
Do, 08.12. 7:00 13 3 20 150° SO
Do, 08.12. 1:00 9 2 15 170° S
Mi, 07.12. 19:00 7 2 22 200° S
Ortszeit Stärke Spitze Richtung
km/h Bft. km/h Grad Sektor
Fr, 09.12. 17:30 7 2 11 350° N
Fr, 09.12. 17:20 7 2 - 350° N
Fr, 09.12. 17:10 7 2 - 340° N
Fr, 09.12. 17:00 6 1 17 360° N
Fr, 09.12. 16:50 6 1 - 360° N
Fr, 09.12. 16:40 4 1 - 10° N
Fr, 09.12. 16:30 7 2 17 350° N
Fr, 09.12. 16:00 11 2 22 350° N
Fr, 09.12. 15:30 13 3 22 350° N
Fr, 09.12. 15:00 11 2 22 350° N
Fr, 09.12. 14:30 11 2 18 340° N
Ortszeit Untergrenze Bedeckung Gattung
total tief tief mittel hoch
Fr, 09.12. 13:00 1200 m 8/8 4/8 - - -
Fr, 09.12. 7:00 8400 m 8/8 0/8 - - -
Fr, 09.12. 1:00 1500 m 8/8 8/8 - - -
Do, 08.12. 19:00 1500 m 8/8 8/8 - - -
Do, 08.12. 13:00 1500 m 8/8 8/8 - - -
Do, 08.12. 7:00 1290 m 8/8 8/8 - - -
Do, 08.12. 1:00 810 m 7/8 7/8 - - -
Mi, 07.12. 19:00 1800 m 8/8 8/8 - - -
Ortszeit Bedeckungsgrad in Achtel und Wolkenuntergrenze
Fr, 09.12. 17:30 1(750m) 8(960m)
Fr, 09.12. 17:20 1(750m) 8(960m)
Fr, 09.12. 17:10 8
Fr, 09.12. 17:00 8(660m)
Fr, 09.12. 16:50 8(660m)
Fr, 09.12. 16:40 7
Fr, 09.12. 16:30 7(660m) 7(1500m)
Fr, 09.12. 16:00 7(1500m)
Fr, 09.12. 15:30 7(1500m)
Fr, 09.12. 15:00 7(1500m)
Fr, 09.12. 14:30 8(1500m)
Ortszeit Luftdruck NN (hPa) Tendenz (hPa in 3 Std.)
Fr, 09.12. 13:00 1005 - 1,0
Fr, 09.12. 7:00 1006 - 1,2
Fr, 09.12. 1:00 1008 - 0,6
Do, 08.12. 19:00 1009 - 0,3
Do, 08.12. 13:00 1010 - 1,5
Do, 08.12. 7:00 1012 - 1,2
Do, 08.12. 1:00 1014 - 1,3
Mi, 07.12. 19:00 1016 - 0,7
Ortszeit Luftdruck NN (hPa) Tendenz (hPa in 3 Std.)
Fr, 09.12. 17:30 1005 + 0,7
Fr, 09.12. 17:20 1005 keine Meldung
Fr, 09.12. 17:10 1005 keine Meldung
Fr, 09.12. 17:00 1005 + 0,5
Fr, 09.12. 16:50 1005 keine Meldung
Fr, 09.12. 16:40 1005 keine Meldung
Fr, 09.12. 16:30 1005 + 0,4
Fr, 09.12. 16:00 1004 - 0,1
Fr, 09.12. 15:30 1004 - 0,6
Fr, 09.12. 15:00 1004 - 0,7
Fr, 09.12. 14:30 1004 - 0,8
Ortszeit Schneehöhe (cm)
Fr, 09.12. 13:00 0
Fr, 09.12. 7:00 0
Fr, 09.12. 1:00 0
Do, 08.12. 19:00 0
Do, 08.12. 13:00 0
Do, 08.12. 7:00 0
Do, 08.12. 1:00 0
Mi, 07.12. 19:00 0
Ortszeit Schneehöhe (cm)
Fr, 09.12. 17:30 0
Fr, 09.12. 17:20 0
Fr, 09.12. 17:10 0
Fr, 09.12. 17:00 0
Fr, 09.12. 16:50 0
Fr, 09.12. 16:40 0
Fr, 09.12. 16:30 0
Fr, 09.12. 16:00 0
Fr, 09.12. 15:30 0
Fr, 09.12. 15:00 0
Fr, 09.12. 14:30 0
Link zu dieser Seite / Seite empfehlen

Das Wetter in ...